QPF
0.00 0.00 0.00 0.00 0.01 0.04 0.00 0.00 0.00 0.00 0.00 0.00 0.00 0.00 0.00 0.00 0.01 0.04 0.00 0.00 0.00 0.00 0.00 0.00 0.00 0.00 0.00 0.00 0.00 0.00 0.00 0.00 0.00 0.00 0.00 0.00 0.00 0.00 0.00 0.00 0.00 0.00 0.00 0.00 0.00 0.00 0.00 0.00 0.00
0.00 0.00 0.00 0.00 0.01 0.01 0.00 0.00 0.00 0.00 0.00 0.00 0.00 0.00 0.00 0.00 0.00 0.00 0.00 0.00 0.00 0.00 0.00 0.00 0.00 0.00 0.00 0.00 0.00 0.00 0.00 0.00 0.00 0.00 0.00 0.00 0.00 0.00 0.00 0.00 0.00 0.00 0.00 0.00 0.00 0.00 0.00 0.00 0.00
0.00 0.00 0.00 0.00 0.00 0.00 0.00 0.00 0.00 0.00 0.00 0.00 0.00 0.00 0.00 0.00 0.00 0.00 0.00 0.00 0.00 0.00 0.00 0.00 0.00 0.00 0.00 0.00 0.00 0.00 0.00 0.00 0.00 0.00 0.00 0.00 0.00 0.00 0.00 0.00 0.00 0.00 0.00 0.00 0.00 0.01 0.01 0.01 0.00
0.00 0.00 0.00 0.00 0.00 0.00 0.00 0.00 0.00 0.00 0.00 0.00 0.00 0.00 0.00 0.00 0.00 0.00 0.00 0.00 0.00 0.00 0.00 0.00 0.00 0.00 0.00 0.00 0.00 0.00 0.00 0.00 0.00 0.00 0.00 0.00 0.00 0.00 0.00 0.00 0.00 0.00 0.00 0.00 0.00 0.00 0.00 0.00 0.00
0.00 0.00 0.00 0.00 0.00 0.00 0.00 0.00 0.00 0.00 0.00 0.00 0.00 0.00 0.00 0.00 0.00 0.00 0.00 0.00 0.00 0.00 0.00 0.00 0.01 0.00 0.00 0.00 0.00 0.00 0.00 0.00 0.00 0.00 0.00 0.00 0.00 0.00 0.00 0.00 0.00 0.00 0.00 0.00 0.00 0.00 0.00 0.00 0.00
0.00 0.00 0.00 0.00 0.00 0.00 0.00 0.00 0.00 0.00 0.00 0.00 0.00 0.00 0.00 0.00 0.00 0.00 0.00 0.00 0.00 0.00 0.00 0.00 0.00 0.00 0.00 0.00 0.00 0.00 0.00 0.00 0.00 0.00 0.00 0.00 0.00 0.00 0.00 0.00 0.00 0.00 0.00 0.00 0.00 0.00 0.00 0.00 0.00
0.00 0.00 0.00 0.00 0.00 0.00 0.00 0.00 0.00 0.00 0.00 0.00 0.00 0.00 0.00 0.00 0.00 0.00 0.00 0.00 0.00 0.00 0.00 0.00 0.00 0.00 0.00 0.00 0.00 0.00 0.00 0.00 0.00 0.00 0.00 0.00 0.00 0.00 0.00 0.00 0.00 0.00 0.00 0.00 0.00 0.00 0.00 0.00 0.00
0.00 0.00 0.00 0.00 0.00 0.00 0.00 0.00 0.00 0.00 0.00 0.00 0.00 0.00 0.00 0.00 0.00 0.00 0.00 0.00 0.00 0.00 0.00 0.00 0.00 0.00 0.00 0.00 0.00 0.00 0.00 0.00 0.00 0.00 0.00 0.00 0.00 0.00 0.00 0.00 0.00 0.00 0.00 0.00 0.00 0.00 0.00 0.00 0.00
0.00 0.00 0.00 0.00 0.00 0.00 0.00 0.00 0.00 0.00 0.00 0.00 0.00 0.00 0.00 0.00 0.00 0.00 0.00 0.00 0.00 0.00 0.00 0.00 0.00 0.00 0.00 0.00 0.00 0.00 0.00 0.00 0.00 0.00 0.00 0.00 0.00 0.00 0.00 0.00 0.00 0.00 0.00 0.00 0.00 0.00 0.00 0.00 0.00
0.00 0.00 0.00 0.00 0.00 0.00 0.00 0.00 0.00 0.00 0.00 0.00 0.00 0.00 0.00 0.00 0.00 0.00 0.00 0.00 0.00 0.00 0.00 0.00 0.00 0.00 0.00 0.00 0.00 0.00 0.00 0.00 0.00 0.00 0.00 0.00 0.00 0.00 0.00 0.00 0.00 0.00 0.00 0.00 0.00 0.00 0.00 0.00 0.00
0.00 0.00 0.00 0.00 0.00 0.00 0.00 0.00 0.00 0.00 0.00 0.00 0.00 0.00 0.00 0.00 0.00 0.00 0.00 0.00 0.00 0.00 0.00 0.00 0.00 0.00 0.00 0.00 0.00 0.00 0.00 0.00 0.00 0.00 0.00 0.00 0.00 0.00 0.00 0.00 0.00 0.00 0.00 0.00 0.00 0.00 0.00 0.00 0.00
0.00 0.00 0.00 0.00 0.00 0.00 0.00 0.00 0.00 0.00 0.00 0.00 0.00 0.00 0.00 0.00 0.00 0.00 0.00 0.00 0.00 0.00 0.00 0.00 0.00 0.00 0.00 0.00 0.00 0.00 0.00 0.00 0.00 0.00 0.00 0.00 0.00 0.00 0.00 0.00 0.00 0.00 0.00 0.00 0.00 0.00 0.00 0.00 0.00
0.00 0.00 0.00 0.00 0.00 0.00 0.00 0.00 0.00 0.00 0.00 0.00 0.00 0.00 0.00 0.00 0.00 0.00 0.00 0.00 0.00 0.00 0.00 0.00 0.00 0.00 0.00 0.00 0.00 0.00 0.00 0.00 0.00 0.00 0.00 0.00 0.00 0.00 0.00 0.00 0.00 0.00 0.00 0.00 0.00 0.00 0.00 0.00 0.00
0.00 0.00 0.00 0.00 0.00 0.00 0.00 0.00 0.00 0.00 0.00 0.00 0.00 0.00 0.00 0.00 0.00 0.00 0.00 0.00 0.00 0.00 0.00 0.00 0.00 0.00 0.00 0.00 0.00 0.00 0.00 0.00 0.00 0.00 0.00 0.00 0.00 0.00 0.00 0.00 0.00 0.00 0.00 0.00 0.00 0.00 0.00 0.00 0.00
0.00 0.00 0.00 0.00 0.00 0.00 0.00 0.00 0.00 0.00 0.00 0.00 0.00 0.00 0.00 0.00 0.00 0.00 0.00 0.00 0.00 0.00 0.00 0.00 0.00 0.00 0.00 0.00 0.00 0.00 0.00 0.00 0.00 0.00 0.00 0.00 0.00 0.00 0.00 0.00 0.00 0.00 0.00 0.00 0.00 0.00 0.00 0.00 0.00
0.00 0.00 0.00 0.00 0.00 0.00 0.00 0.00 0.00 0.00 0.00 0.00 0.00 0.00 0.00 0.00 0.00 0.00 0.00 0.00 0.00 0.00 0.00 0.00 0.00 0.00 0.00 0.00 0.00 0.00 0.00 0.00 0.00 0.00 0.00 0.00 0.00 0.00 0.00 0.00 0.00 0.00 0.00 0.00 0.00 0.00 0.00 0.00 0.00
0.00 0.00 0.00 0.00 0.00 0.00 0.00 0.00 0.00 0.00 0.00 0.00 0.00 0.00 0.00 0.00 0.00 0.00 0.00 0.00 0.00 0.00 0.00 0.00 0.00 0.00 0.00 0.00 0.00 0.00 0.01 0.00 0.00 0.00 0.01 0.01 0.00 0.00 0.00 0.00 0.00 0.00 0.00 0.00 0.00 0.00 0.00 0.00 0.00
0.00 0.00 0.00 0.00 0.00 0.00 0.00 0.00 0.00 0.00 0.00 0.00 0.00 0.00 0.00 0.00 0.00 0.00 0.00 0.00 0.00 0.00 0.00 0.00 0.00 0.00 0.00 0.00 0.00 0.00 0.04 0.00 0.00 0.01 0.01 0.01 0.00 0.00 0.00 0.00 0.00 0.00 0.00 0.00 0.00 0.00 0.00 0.00 0.00
0.00 0.00 0.00 0.00 0.00 0.00 0.00 0.00 0.00 0.00 0.00 0.00 0.00 0.00 0.00 0.00 0.00 0.00 0.00 0.00 0.00 0.00 0.00 0.00 0.00 0.00 0.00 0.00 0.00 0.00 0.03 0.01 0.01 0.00 0.01 0.01 0.00 0.00 0.00 0.00 0.00 0.00 0.00 0.00 0.00 0.00 0.00 0.00 0.00
0.00 0.00 0.00 0.00 0.00 0.00 0.00 0.00 0.00 0.00 0.00 0.00 0.00 0.00 0.00 0.00 0.00 0.00 0.00 0.00 0.00 0.00 0.00 0.00 0.00 0.00 0.00 0.00 0.00 0.01 0.00 0.00 0.01 0.00 0.01 0.01 0.00 0.00 0.00 0.00 0.00 0.00 0.00 0.00 0.00 0.00 0.00 0.00 0.00
0.00 0.00 0.00 0.00 0.00 0.00 0.00 0.00 0.00 0.00 0.00 0.00 0.00 0.00 0.00 0.00 0.00 0.00 0.00 0.00 0.00 0.00 0.00 0.00 0.00 0.00 0.00 0.00 0.00 0.01 0.01 0.01 0.01 0.00 0.00 0.00 0.00 0.00 0.00 0.00 0.00 0.00 0.00 0.00 0.00 0.00 0.00 0.00 0.00
0.00 0.00 0.00 0.00 0.00 0.00 0.00 0.00 0.00 0.00 0.00 0.00 0.00 0.00 0.00 0.00 0.00 0.00 0.00 0.00 0.00 0.00 0.00 0.00 0.00 0.00 0.00 0.00 0.00 0.01 0.01 0.00 0.01 0.00 0.00 0.00 0.00 0.00 0.00 0.00 0.00 0.00 0.00 0.00 0.01 0.00 0.00 0.00 0.00
0.00 0.00 0.00 0.00 0.00 0.00 0.00 0.00 0.00 0.00 0.00 0.00 0.00 0.00 0.00 0.00 0.00 0.00 0.00 0.00 0.00 0.00 0.00 0.00 0.00 0.00 0.00 0.00 0.02 0.01 0.00 0.00 0.00 0.00 0.00 0.02 0.01 0.00 0.00 0.00 0.00 0.00 0.00 0.00 0.00 0.00 0.00 0.00 0.00
0.00 0.00 0.00 0.00 0.00 0.00 0.00 0.00 0.00 0.00 0.00 0.00 0.00 0.00 0.00 0.00 0.00 0.00 0.00 0.00 0.00 0.00 0.00 0.00 0.00 0.00 0.00 0.00 0.01 0.02 0.04 0.01 0.00 0.01 0.01 0.01 0.02 0.00 0.00 0.00 0.00 0.00 0.00 0.00 0.00 0.00 0.00 0.00 0.00
0.00 0.00 0.00 0.00 0.00 0.00 0.00 0.00 0.00 0.00 0.00 0.00 0.00 0.00 0.00 0.00 0.00 0.00 0.00 0.00 0.00 0.00 0.00 0.00 0.00 0.00 0.00 0.00 0.00 0.00 0.00 0.00 0.00 0.02 0.02 0.03 0.00 0.01 0.02 0.01 0.01 0.00 0.00 0.00 0.00 0.00 0.00 0.01 0.01
0.00 0.00 0.00 0.00 0.00 0.00 0.00 0.00 0.00 0.00 0.00 0.00 0.00 0.00 0.00 0.00 0.00 0.00 0.00 0.00 0.00 0.00 0.00 0.00 0.00 0.00 0.00 0.00 0.00 0.00 0.01 0.00 0.00 0.02 0.03 0.02 0.00 0.00 0.07 0.09 0.05 0.00 0.00 0.00 0.00 0.00 0.01 0.00 0.01
0.00 0.00 0.00 0.00 0.00 0.00 0.00 0.00 0.00 0.00 0.00 0.00 0.00 0.00 0.00 0.00 0.00 0.00 0.00 0.00 0.00 0.00 0.00 0.00 0.00 0.00 0.00 0.00 0.00 0.01 0.01 0.00 0.00 0.00 0.00 0.00 0.00 0.01 0.05 0.08 0.05 0.03 0.01 0.00 0.00 0.00 0.00 0.02 0.02
0.00 0.00 0.00 0.00 0.00 0.00 0.00 0.00 0.00 0.00 0.00 0.00 0.00 0.00 0.00 0.00 0.00 0.00 0.00 0.00 0.00 0.03 0.03 0.05 0.01 0.00 0.00 0.00 0.00 0.00 0.01 0.00 0.00 0.00 0.00 0.00 0.01 0.00 0.03 0.06 0.06 0.06 0.07 0.06 0.05 0.05 0.06 0.10 0.08
0.00 0.00 0.00 0.00 0.00 0.00 0.00 0.00 0.00 0.00 0.00 0.00 0.00 0.00 0.00 0.00 0.00 0.00 0.00 0.00 0.00 0.01 0.03 0.05 0.06 0.01 0.02 0.01 0.01 0.01 0.00 0.00 0.00 0.00 0.00 0.00 0.00 0.00 0.01 0.02 0.04 0.09 0.10 0.09 0.12 0.14 0.20 0.21 0.20
0.00 0.00 0.00 0.00 0.00 0.00 0.00 0.00 0.00 0.00 0.00 0.00 0.00 0.00 0.00 0.00 0.00 0.00 0.00 0.00 0.01 0.05 0.01 0.05 0.08 0.07 0.11 0.03 0.02 0.01 0.01 0.00 0.00 0.00 0.00 0.00 0.01 0.04 0.05 0.03 0.03 0.04 0.05 0.08 0.11 0.15 0.25 0.26 0.23
MSLP
1007.56 1007.57 1006.81 1005.80 1007.90 1007.98 1003.79 1001.32 1001.04 1001.51 1002.28 1002.95 1003.01 1003.64 1005.57 1006.65 1006.57 1008.75 1008.84 1009.93 1011.34 1012.90 1014.17 1014.60 1014.95 1015.22 1015.39 1015.64 1015.94 1016.31 1016.50 1016.61 1016.75 1016.77 1016.78 1016.93 1016.87 1016.83 1016.81 1016.74 1016.65 1016.55 1016.35 1016.21 1016.04 1015.80 1015.67 1015.64 1015.64
1006.76 1006.29 1005.43 1005.12 1007.52 1007.04 1003.26 1001.04 1001.54 1002.30 1002.65 1002.82 1003.68 1004.09 1005.79 1007.62 1007.90 1008.30 1009.13 1010.52 1011.90 1013.27 1014.08 1014.65 1015.14 1015.47 1015.75 1015.92 1016.32 1016.59 1016.75 1016.90 1017.07 1017.12 1017.13 1017.19 1017.19 1017.19 1017.10 1016.91 1016.71 1016.64 1016.55 1016.39 1016.26 1015.93 1015.80 1015.80 1015.67
1007.14 1006.18 1004.93 1003.82 1005.32 1004.47 1001.83 1001.17 1001.53 1002.37 1002.63 1003.50 1004.75 1005.59 1006.47 1008.21 1008.77 1008.71 1009.63 1011.00 1012.08 1013.24 1014.20 1015.03 1015.40 1015.64 1015.96 1016.41 1016.67 1016.80 1017.08 1017.19 1017.28 1017.36 1017.39 1017.42 1017.43 1017.46 1017.30 1017.12 1016.91 1016.82 1016.75 1016.56 1016.34 1016.25 1016.16 1016.10 1015.97
1005.59 1004.32 1003.79 1001.95 1001.93 1000.92 1000.51 1000.79 1001.20 1001.93 1003.02 1003.71 1004.92 1006.54 1007.61 1008.49 1008.94 1009.28 1010.08 1011.17 1012.34 1013.43 1014.53 1015.36 1015.55 1015.84 1016.14 1016.59 1016.82 1017.04 1017.20 1017.28 1017.41 1017.59 1017.67 1017.59 1017.56 1017.51 1017.39 1017.26 1017.12 1017.07 1016.95 1016.79 1016.75 1016.62 1016.47 1016.41 1016.25
1004.65 1003.19 1001.59 1000.54 999.91 999.83 1000.54 1000.91 1001.41 1002.38 1003.38 1004.49 1005.56 1007.29 1008.25 1009.02 1009.23 1009.71 1010.49 1011.20 1011.95 1013.57 1014.85 1015.48 1015.90 1016.19 1016.46 1016.65 1016.98 1017.14 1017.36 1017.45 1017.57 1017.62 1017.67 1017.69 1017.59 1017.55 1017.40 1017.35 1017.22 1017.08 1017.14 1017.12 1017.18 1017.00 1016.83 1016.68 1016.49
1003.62 1002.00 1000.56 999.11 999.27 999.64 1000.12 1000.58 1001.24 1002.08 1003.36 1004.75 1005.77 1007.27 1008.70 1009.35 1009.48 1009.77 1010.18 1010.63 1011.76 1013.33 1014.46 1015.41 1015.94 1016.28 1016.57 1016.86 1017.11 1017.29 1017.41 1017.46 1017.51 1017.63 1017.70 1017.67 1017.63 1017.55 1017.47 1017.50 1017.41 1017.42 1017.42 1017.36 1017.41 1017.36 1017.17 1017.00 1016.73
1003.17 1001.64 999.84 999.05 999.24 999.56 999.97 1000.69 1001.76 1002.37 1003.42 1004.23 1005.26 1007.17 1008.85 1008.95 1009.01 1009.26 1009.64 1010.30 1011.40 1012.87 1014.35 1015.11 1015.80 1016.31 1016.57 1016.84 1017.08 1017.07 1017.30 1017.40 1017.51 1017.68 1017.65 1017.59 1017.56 1017.55 1017.67 1017.60 1017.70 1017.69 1017.74 1017.69 1017.66 1017.57 1017.46 1017.24 1016.93
1002.40 1001.13 999.37 998.25 998.79 999.68 1000.41 1000.81 1002.02 1002.92 1003.99 1004.30 1004.90 1006.98 1008.19 1008.93 1008.71 1008.86 1009.31 1010.11 1011.07 1012.37 1013.47 1014.26 1015.30 1015.90 1016.33 1016.81 1017.13 1017.22 1017.39 1017.57 1017.54 1017.61 1017.58 1017.63 1017.62 1017.49 1017.76 1017.77 1017.76 1017.93 1018.01 1017.95 1017.85 1017.82 1017.57 1017.30 1017.15
1001.79 1001.03 999.19 998.46 999.08 999.67 1000.31 1000.95 1002.19 1003.37 1003.99 1004.72 1004.86 1006.47 1007.97 1008.91 1008.43 1008.64 1009.25 1009.99 1010.66 1011.59 1012.51 1013.37 1014.56 1015.45 1015.70 1016.34 1017.01 1017.40 1017.59 1017.71 1017.85 1017.82 1017.79 1017.86 1017.64 1017.55 1017.63 1017.78 1017.86 1017.87 1018.08 1018.01 1017.93 1017.95 1018.01 1017.72 1017.26
1001.64 1000.79 999.32 998.04 998.49 999.56 999.96 1001.25 1002.55 1004.00 1005.08 1005.83 1006.57 1007.49 1008.27 1008.38 1008.25 1008.68 1009.29 1010.00 1010.63 1011.10 1011.71 1012.37 1013.48 1013.86 1014.58 1015.60 1016.95 1017.03 1017.29 1017.48 1017.53 1017.44 1017.56 1017.75 1017.46 1017.28 1017.28 1017.73 1017.79 1017.85 1018.01 1017.96 1017.96 1017.97 1017.98 1017.78 1017.28
1001.16 1000.03 998.76 998.78 999.10 999.28 1000.16 1001.13 1002.70 1004.07 1005.57 1006.06 1006.94 1007.56 1008.08 1008.28 1008.46 1008.87 1009.34 1009.80 1010.46 1011.00 1011.44 1012.07 1012.94 1013.16 1013.83 1015.03 1016.20 1016.22 1016.55 1016.67 1016.79 1016.82 1016.96 1016.87 1016.82 1017.10 1017.21 1017.68 1017.72 1017.89 1018.02 1017.92 1017.90 1017.82 1017.59 1017.04 1016.86
1000.51 999.72 998.86 998.96 999.63 999.67 999.87 1000.92 1002.67 1003.58 1004.66 1005.85 1006.84 1007.38 1007.86 1008.28 1008.60 1008.91 1009.34 1009.81 1010.50 1011.13 1011.74 1012.28 1013.09 1013.54 1013.66 1014.56 1015.16 1015.17 1015.59 1016.02 1016.20 1016.51 1016.83 1016.79 1016.91 1016.82 1016.72 1017.59 1017.42 1017.32 1017.69 1017.88 1017.94 1017.80 1017.69 1017.33 1016.88
1000.37 999.83 999.62 999.60 1000.03 1000.03 1000.17 1000.91 1002.00 1003.45 1004.15 1005.59 1006.61 1007.29 1007.75 1008.08 1008.47 1008.88 1009.40 1010.10 1010.67 1011.33 1012.10 1012.72 1013.50 1013.99 1014.06 1014.36 1014.65 1014.77 1015.11 1015.68 1015.88 1016.23 1016.62 1016.75 1016.71 1016.88 1016.98 1017.10 1017.05 1017.06 1017.44 1017.50 1017.70 1017.83 1017.81 1017.70 1017.33
1000.03 999.86 999.91 1000.07 1000.18 1000.56 1000.79 1000.97 1001.93 1003.38 1004.23 1005.34 1006.49 1007.10 1007.62 1008.07 1008.30 1008.94 1009.43 1009.98 1010.64 1011.43 1012.41 1012.93 1013.70 1014.35 1014.48 1014.73 1014.71 1015.13 1015.26 1015.56 1015.77 1016.04 1016.37 1016.74 1017.00 1017.00 1017.08 1017.03 1017.08 1017.20 1017.21 1017.46 1017.74 1017.95 1017.93 1017.78 1017.41
1000.31 1000.24 1000.09 1000.21 1000.11 1000.40 1000.78 1000.98 1002.13 1003.20 1004.14 1005.23 1006.31 1007.02 1007.53 1007.83 1007.95 1008.57 1009.05 1009.69 1010.41 1011.19 1012.32 1012.99 1013.63 1014.41 1015.05 1015.07 1015.05 1015.26 1015.47 1015.52 1015.87 1015.97 1016.35 1016.63 1017.05 1017.13 1017.21 1017.08 1017.05 1017.45 1017.27 1017.54 1017.94 1018.04 1017.95 1017.89 1017.58
1000.91 1000.81 1000.37 1000.16 1000.33 1000.54 1001.12 1000.61 1001.78 1002.94 1003.88 1004.86 1005.72 1006.40 1007.15 1007.49 1007.79 1008.03 1008.52 1009.34 1010.04 1010.67 1011.74 1012.73 1013.35 1014.14 1015.03 1015.26 1015.20 1015.21 1015.09 1015.43 1015.96 1016.15 1016.33 1016.53 1016.92 1017.10 1017.15 1017.18 1017.22 1017.33 1017.42 1017.71 1018.09 1018.25 1018.24 1018.18 1018.01
1001.48 1000.68 1000.19 999.84 1000.16 1000.35 1000.76 1000.45 1001.66 1002.53 1003.32 1003.96 1005.00 1006.06 1006.74 1007.42 1007.43 1007.82 1008.24 1008.97 1009.75 1010.27 1011.31 1012.20 1012.95 1013.58 1014.48 1014.95 1014.95 1015.12 1015.41 1015.56 1015.62 1015.91 1016.33 1016.39 1016.67 1016.84 1017.32 1017.24 1017.40 1017.69 1017.52 1017.72 1018.13 1018.38 1018.38 1018.35 1018.19
1001.05 1000.61 999.88 999.36 1000.04 1000.32 1000.18 1000.74 1001.45 1002.03 1002.47 1003.70 1004.53 1005.62 1006.59 1007.24 1007.57 1007.90 1008.36 1008.70 1009.36 1009.94 1010.74 1011.68 1012.47 1013.08 1013.81 1014.42 1014.79 1014.97 1015.38 1015.56 1015.73 1015.72 1016.04 1016.46 1016.60 1016.80 1017.10 1017.43 1017.72 1017.65 1017.66 1017.87 1018.09 1018.33 1018.36 1018.37 1018.27
1000.43 1000.26 999.67 999.03 999.64 1000.16 1000.18 1000.17 1000.85 1001.67 1002.30 1003.04 1003.93 1005.15 1005.61 1006.55 1007.41 1008.13 1008.71 1008.85 1009.12 1009.66 1010.33 1011.13 1011.86 1012.64 1013.39 1013.93 1014.53 1014.71 1015.24 1015.46 1015.61 1015.66 1016.07 1016.33 1016.64 1016.86 1017.23 1017.59 1017.77 1017.64 1017.76 1017.76 1017.92 1018.12 1018.36 1018.37 1017.94
999.83 999.37 999.21 998.84 999.01 1000.00 1000.00 1000.00 1000.39 1001.27 1002.15 1002.18 1003.22 1004.09 1004.75 1005.73 1006.73 1007.61 1008.40 1008.86 1009.27 1009.63 1010.19 1010.86 1011.53 1012.27 1012.97 1013.60 1013.95 1014.20 1014.63 1014.94 1015.46 1015.66 1016.03 1016.24 1016.66 1017.13 1017.50 1017.68 1017.74 1017.58 1017.62 1017.75 1018.02 1018.13 1018.25 1018.11 1017.95
999.69 999.34 998.98 998.74 999.36 1000.13 1000.15 1000.15 1000.30 1000.87 1001.61 1001.84 1002.31 1002.91 1003.55 1004.60 1005.89 1006.97 1007.65 1008.31 1008.80 1009.42 1010.00 1010.64 1011.38 1012.25 1012.87 1013.50 1013.93 1014.37 1014.59 1014.96 1015.12 1015.55 1015.75 1016.10 1016.51 1016.98 1017.42 1017.56 1017.61 1017.66 1017.60 1017.77 1017.94 1018.17 1018.46 1018.55 1017.99
999.82 999.56 999.04 998.65 999.36 999.98 1000.22 999.88 999.94 1000.44 1001.07 1001.70 1002.45 1002.89 1003.17 1003.85 1004.70 1005.81 1006.83 1007.65 1008.40 1009.06 1009.90 1010.52 1011.28 1012.12 1012.73 1013.41 1013.79 1014.21 1014.44 1014.45 1014.72 1014.74 1015.48 1015.97 1016.25 1016.62 1016.97 1017.30 1017.27 1017.30 1017.53 1017.73 1017.72 1017.90 1018.07 1018.18 1018.17
999.94 999.50 999.08 998.79 999.32 999.91 999.69 999.94 999.23 999.73 1000.46 1001.21 1001.82 1002.36 1002.80 1003.00 1003.88 1004.83 1005.70 1006.89 1007.95 1008.74 1009.70 1010.50 1011.15 1011.88 1012.61 1013.25 1013.58 1013.98 1014.13 1014.05 1014.07 1014.55 1015.05 1015.41 1015.79 1015.95 1016.27 1016.49 1016.74 1017.06 1017.34 1017.59 1017.61 1017.61 1017.70 1017.75 1017.79
999.62 999.24 999.17 999.33 999.21 999.70 999.72 1000.25 999.36 999.64 1000.01 1000.58 1000.77 1001.29 1002.08 1002.56 1003.51 1004.58 1005.61 1006.60 1007.46 1008.33 1009.30 1010.05 1010.81 1011.41 1011.89 1012.43 1012.85 1013.36 1013.57 1013.74 1013.97 1014.49 1014.92 1014.96 1014.92 1015.40 1015.52 1015.78 1016.03 1016.33 1016.84 1017.08 1017.05 1017.04 1017.20 1017.50 1017.49
999.08 999.25 999.45 999.46 999.08 998.94 998.98 999.12 998.40 999.38 999.45 999.69 1000.04 1000.67 1001.56 1002.45 1003.51 1004.40 1005.20 1006.19 1006.84 1007.53 1008.33 1009.33 1010.12 1010.78 1011.38 1012.00 1012.56 1012.82 1013.41 1013.54 1013.92 1014.14 1014.09 1014.30 1014.42 1014.77 1014.92 1015.52 1015.75 1016.03 1016.08 1016.35 1016.55 1016.87 1016.93 1016.90 1017.03
998.24 998.97 998.65 998.65 998.94 998.83 998.71 998.54 998.18 998.52 999.26 999.51 999.67 1000.15 1001.26 1002.41 1003.46 1004.57 1005.43 1006.16 1006.85 1007.40 1008.18 1008.76 1009.57 1010.33 1010.87 1011.51 1012.29 1012.68 1013.04 1013.58 1013.78 1013.91 1014.36 1014.08 1013.96 1014.00 1014.91 1015.53 1015.49 1015.61 1015.63 1015.76 1016.07 1016.46 1016.51 1016.54 1016.55
998.31 998.49 998.48 998.85 999.22 999.48 998.41 998.85 999.82 999.91 999.66 999.75 999.94 1000.25 1001.60 1002.75 1003.81 1004.92 1005.34 1006.04 1006.63 1007.38 1008.29 1009.39 1010.27 1010.22 1011.04 1011.29 1011.73 1012.58 1013.18 1013.69 1014.04 1014.37 1014.41 1013.69 1014.27 1014.01 1014.18 1014.90 1015.35 1015.37 1015.37 1015.54 1015.75 1015.93 1016.01 1015.99 1015.94
997.86 998.47 998.79 999.04 999.29 999.55 998.99 999.47 999.21 999.51 999.50 999.88 1000.08 1000.85 1001.98 1003.21 1004.68 1006.50 1007.58 1005.73 1008.21 1010.17 1010.59 1009.26 1010.61 1010.92 1011.34 1011.23 1012.20 1012.97 1013.53 1013.89 1014.25 1014.79 1014.82 1014.70 1014.51 1014.03 1014.22 1014.52 1014.64 1014.87 1015.05 1015.20 1015.36 1015.53 1015.48 1015.49 1015.36
998.13 998.17 998.59 998.96 999.20 999.31 999.62 1001.97 1000.55 1000.15 999.94 1000.24 1000.26 1001.00 1003.01 1004.21 1005.75 1006.28 1007.11 1009.06 1008.99 1009.59 1011.96 1011.33 1012.27 1010.45 1010.55 1011.68 1012.52 1012.92 1013.46 1013.86 1014.58 1014.83 1014.97 1014.44 1014.05 1013.90 1014.07 1014.18 1014.23 1014.47 1014.60 1014.66 1014.84 1014.92 1014.75 1014.76 1014.62
998.15 998.19 998.33 998.98 999.96 999.99 1000.34 1001.72 1000.46 1001.01 1000.86 1000.50 1000.80 1001.45 1002.41 1003.64 1004.57 1005.83 1006.75 1008.99 1010.08 1009.66 1009.97 1009.06 1007.78 1008.33 1010.14 1011.47 1012.30 1013.06 1013.79 1014.11 1014.61 1014.69 1014.50 1014.14 1013.82 1013.93 1013.83 1013.89 1013.96 1014.09 1014.16 1014.29 1014.29 1014.20 1013.98 1013.97 1014.09
Thickness
5839 5839 5847 5841 5775 5731 5796 5828 5845 5825 5817 5832 5837 5821 5800 5797 5789 5749 5806 5803 5792 5779 5767 5764 5761 5758 5757 5755 5752 5749 5747 5746 5745 5744 5744 5740 5740 5739 5739 5739 5739 5739 5740 5739 5740 5741 5741 5741 5741
5846 5849 5849 5829 5749 5744 5786 5841 5821 5822 5830 5838 5829 5823 5803 5778 5800 5797 5795 5797 5785 5773 5766 5762 5758 5755 5753 5751 5747 5745 5743 5741 5739 5738 5738 5737 5736 5734 5734 5735 5736 5736 5735 5736 5735 5737 5738 5737 5737
5844 5849 5827 5816 5781 5766 5806 5833 5830 5830 5838 5822 5809 5815 5803 5780 5794 5797 5800 5791 5781 5772 5764 5758 5755 5752 5750 5745 5743 5741 5738 5737 5735 5733 5733 5733 5731 5730 5731 5731 5732 5732 5731 5731 5732 5732 5731 5730 5731
5848 5851 5843 5820 5808 5844 5843 5842 5845 5832 5832 5830 5819 5789 5801 5803 5794 5799 5799 5790 5779 5768 5759 5754 5752 5750 5747 5742 5740 5738 5736 5735 5733 5730 5729 5730 5729 5728 5728 5728 5728 5727 5727 5727 5726 5726 5726 5725 5725
5853 5852 5826 5830 5845 5855 5852 5852 5848 5823 5818 5814 5811 5783 5782 5796 5802 5799 5792 5788 5780 5768 5757 5752 5748 5745 5742 5740 5737 5736 5733 5732 5730 5728 5728 5727 5727 5726 5727 5725 5726 5725 5723 5723 5720 5721 5721 5721 5721
5830 5849 5823 5839 5844 5855 5858 5859 5850 5833 5823 5814 5802 5787 5779 5796 5794 5794 5794 5789 5781 5767 5758 5751 5746 5742 5739 5737 5735 5732 5731 5730 5730 5728 5727 5726 5725 5725 5725 5722 5722 5721 5720 5719 5717 5716 5716 5716 5717
5826 5823 5830 5852 5842 5845 5853 5860 5839 5830 5819 5814 5816 5779 5781 5789 5799 5800 5797 5792 5783 5770 5758 5752 5746 5741 5739 5737 5735 5734 5732 5731 5730 5728 5727 5726 5725 5724 5721 5721 5718 5717 5715 5714 5713 5712 5711 5711 5712
5845 5840 5841 5866 5844 5831 5853 5853 5846 5833 5817 5837 5829 5781 5775 5790 5803 5803 5798 5791 5784 5774 5764 5757 5749 5744 5741 5737 5735 5734 5732 5730 5730 5728 5727 5726 5724 5724 5719 5717 5716 5713 5711 5711 5710 5707 5707 5708 5706
5862 5824 5831 5850 5843 5841 5861 5843 5846 5843 5825 5825 5828 5811 5802 5800 5808 5800 5793 5788 5783 5778 5772 5763 5753 5746 5743 5740 5735 5731 5729 5728 5726 5725 5724 5723 5723 5722 5719 5716 5714 5713 5709 5709 5707 5704 5700 5700 5701
5839 5822 5836 5883 5873 5852 5859 5846 5833 5813 5804 5803 5803 5808 5806 5805 5803 5794 5786 5780 5778 5776 5775 5773 5763 5759 5753 5744 5734 5733 5730 5728 5727 5727 5726 5722 5723 5723 5720 5715 5712 5711 5707 5706 5704 5701 5698 5697 5698
5838 5830 5870 5872 5872 5877 5854 5845 5838 5812 5791 5802 5793 5797 5802 5801 5798 5793 5789 5786 5781 5780 5778 5775 5768 5765 5759 5749 5740 5739 5736 5734 5732 5730 5728 5727 5726 5722 5719 5717 5714 5710 5707 5706 5701 5700 5698 5700 5698
5831 5858 5872 5870 5871 5867 5859 5856 5826 5821 5812 5819 5810 5808 5803 5798 5794 5793 5788 5787 5782 5780 5776 5775 5768 5763 5761 5754 5749 5748 5743 5739 5735 5731 5727 5726 5724 5723 5721 5713 5713 5712 5708 5703 5700 5697 5693 5694 5696
5839 5852 5862 5866 5863 5864 5866 5848 5836 5822 5831 5826 5817 5807 5801 5798 5795 5796 5794 5789 5785 5778 5774 5771 5765 5760 5758 5755 5752 5750 5746 5739 5736 5732 5727 5725 5724 5721 5719 5716 5714 5710 5705 5702 5698 5694 5692 5691 5691
5855 5856 5856 5858 5855 5854 5843 5847 5839 5827 5834 5821 5811 5803 5801 5797 5797 5793 5792 5788 5784 5780 5772 5771 5764 5758 5755 5752 5749 5744 5742 5738 5733 5729 5727 5723 5720 5718 5717 5715 5713 5710 5708 5704 5698 5694 5691 5691 5691
5852 5834 5846 5847 5853 5846 5850 5830 5818 5834 5832 5815 5806 5803 5801 5800 5804 5795 5795 5790 5788 5783 5775 5769 5765 5757 5750 5748 5745 5741 5737 5734 5729 5728 5725 5722 5718 5716 5714 5714 5712 5707 5706 5702 5697 5693 5692 5690 5690
5826 5829 5808 5840 5847 5849 5837 5813 5828 5835 5823 5813 5809 5806 5801 5801 5801 5803 5802 5797 5793 5790 5779 5773 5769 5760 5750 5746 5744 5741 5740 5734 5730 5728 5726 5722 5718 5716 5714 5713 5711 5707 5705 5700 5697 5694 5690 5689 5688
5809 5795 5809 5831 5848 5845 5834 5823 5831 5839 5827 5816 5812 5807 5803 5800 5805 5807 5806 5801 5796 5793 5785 5776 5771 5765 5755 5750 5746 5743 5738 5735 5733 5730 5726 5724 5720 5717 5712 5711 5708 5705 5704 5700 5696 5692 5689 5686 5686
5789 5797 5820 5827 5834 5839 5835 5822 5832 5837 5832 5816 5816 5809 5802 5798 5800 5806 5805 5805 5800 5795 5790 5782 5775 5770 5763 5755 5750 5746 5740 5736 5733 5732 5729 5723 5720 5717 5713 5709 5705 5703 5703 5699 5696 5691 5691 5687 5685
5820 5815 5817 5844 5846 5830 5829 5836 5831 5834 5831 5817 5819 5810 5807 5801 5805 5803 5801 5803 5800 5796 5789 5783 5777 5771 5764 5757 5748 5745 5738 5736 5734 5732 5727 5724 5719 5715 5711 5705 5702 5701 5700 5700 5697 5693 5687 5684 5687
5825 5825 5825 5843 5853 5833 5832 5834 5838 5832 5827 5833 5817 5813 5811 5808 5804 5801 5798 5797 5795 5792 5789 5783 5778 5772 5766 5759 5754 5750 5743 5740 5735 5731 5725 5720 5715 5710 5705 5701 5699 5698 5698 5695 5692 5689 5685 5685 5684
5817 5816 5823 5831 5836 5835 5828 5817 5829 5833 5833 5836 5836 5832 5822 5811 5803 5799 5797 5796 5795 5790 5787 5783 5778 5769 5764 5758 5752 5746 5742 5735 5731 5727 5724 5719 5713 5707 5701 5697 5696 5693 5693 5689 5685 5681 5676 5671 5678
5793 5829 5835 5838 5817 5789 5828 5784 5818 5824 5820 5825 5825 5826 5826 5820 5814 5807 5802 5797 5794 5790 5787 5782 5775 5768 5763 5757 5749 5743 5737 5731 5730 5730 5723 5716 5710 5705 5700 5695 5693 5690 5686 5683 5682 5678 5673 5670 5665
5803 5832 5829 5836 5819 5810 5815 5797 5820 5832 5810 5813 5819 5822 5825 5825 5821 5814 5808 5802 5797 5792 5784 5778 5773 5766 5760 5753 5749 5742 5736 5736 5734 5728 5721 5717 5712 5708 5702 5698 5693 5689 5684 5679 5677 5675 5670 5666 5662
5828 5824 5827 5825 5822 5781 5806 5791 5801 5810 5816 5816 5826 5827 5826 5825 5821 5816 5812 5805 5798 5793 5785 5779 5770 5764 5761 5756 5750 5744 5740 5734 5731 5723 5717 5715 5715 5707 5704 5699 5695 5689 5683 5678 5677 5674 5670 5663 5661
5821 5805 5774 5772 5781 5780 5825 5809 5821 5818 5833 5835 5833 5830 5827 5824 5818 5812 5806 5800 5795 5789 5785 5777 5770 5762 5759 5754 5747 5743 5736 5733 5726 5722 5720 5715 5710 5705 5705 5696 5691 5688 5684 5678 5673 5669 5665 5662 5656
5816 5806 5787 5759 5770 5790 5829 5801 5820 5840 5840 5843 5844 5839 5829 5822 5816 5809 5803 5797 5792 5787 5780 5775 5767 5760 5757 5752 5745 5741 5735 5727 5723 5719 5712 5711 5710 5705 5697 5689 5685 5684 5680 5675 5669 5663 5660 5656 5652
5806 5795 5827 5799 5805 5780 5812 5819 5813 5823 5824 5830 5832 5830 5821 5817 5809 5804 5802 5800 5792 5784 5773 5766 5759 5756 5750 5746 5742 5734 5727 5718 5714 5710 5707 5709 5703 5703 5696 5688 5685 5680 5675 5669 5665 5659 5655 5652 5648
5819 5829 5788 5796 5759 5750 5791 5788 5786 5802 5810 5818 5821 5816 5815 5814 5800 5775 5769 5801 5761 5740 5720 5728 5745 5745 5740 5741 5731 5722 5716 5711 5706 5700 5695 5694 5693 5694 5690 5683 5679 5673 5668 5663 5658 5653 5650 5645 5643
5806 5802 5806 5809 5802 5775 5767 5729 5797 5802 5809 5806 5815 5816 5795 5791 5779 5777 5772 5759 5763 5755 5736 5738 5734 5741 5736 5731 5722 5718 5710 5704 5695 5690 5686 5689 5689 5687 5682 5677 5674 5666 5660 5656 5651 5647 5645 5640 5637
5820 5810 5811 5782 5772 5789 5770 5746 5806 5803 5806 5813 5810 5811 5810 5801 5795 5785 5782 5759 5743 5745 5743 5752 5722 5714 5731 5723 5717 5708 5699 5694 5687 5683 5682 5683 5682 5678 5674 5668 5666 5660 5655 5650 5645 5642 5639 5635 5631